Location: Unspecified
(48.2082°N, 0.0000°E)
Time: 17:55:59
(UTC+00:00)

Altair - Pass Details

Date: 21 June 2019
Orbit: 1501 x 1683 km, 47.2° (Epoch: 14 July)

Event Time Altitude Azimuth Distance (km) Brightness Sun altitude
Rises 18:51:18 0° 206° (SSW) 4,678 10.1 9.5°
Reaches altitude 10° 18:54:39 10° 197° (SSW) 3,721 9.5 9.0°
Maximum altitude 19:02:47 34° 137° (SE) 2,386 8.2 7.8°
Drops below altitude 10° 19:11:13 10° 77° (ENE) 3,859 9.2 6.6°
Sets 19:14:44 0° 69° (ENE) 4,873 9.7 6.0°
